Durango, CO

6:46 AM MST on November 23, 2017 (GMT -0700)
Durango-La Plata County

Weather History for KDRO - December, 2012

Change the Weather History Date:

Tuesday, December 18, 2012

  Actual Average Record
Temperature  
Mean Temperature 29 °F 26 °F  
Max Temperature 33 °F 38 °F 56 °F (1980)
Min Temperature 24 °F 13 °F -2 °F (2015)
Degree Days  
Heating Degree Days 36 40  
Month to date heating degree days 646 673  
Since 1 July heating degree days 2095 2346  
Cooling Degree Days 0 0  
Month to date cooling degree days 0 0  
Year to date cooling degree days 477 243  
Moisture  
Dew Point 26 °F    
Average Humidity 89    
Maximum Humidity 100    
Minimum Humidity 78    
Precipitation  
Precipitation 0.01 in 0.03 in 0.74 in (1978)
Month to date precipitation 0.73 0.58  
Year to date precipitation 7.64 15.48  
Sea Level Pressure  
Sea Level Pressure 29.89 in    
Wind  
Wind Speed 2 mph (East)    
Max Wind Speed 10 mph    
Max Gust Speed 10 mph    
Visibility 8 miles    
Events Snow    
T = Trace of Precipitation, MM = Missing Value Source: NWS Daily Summary

Daily Weather History Graph

Daily Weather History Graph

Search for Another Location

Airport or City:

Trip Planner

Search our weather history database for the weather conditions in past years. The results will help you decide how hot, cold, wet, or windy it might be!

Date:

Astronomy

Dec. 18, 2012 Rise Set
Actual Time 7:19 AM MST 4:56 PM MST
Civil Twilight 6:50 AM MST 5:25 PM MST
Nautical Twilight 6:17 AM MST 5:58 PM MST
Astronomical Twilight 5:46 AM MST 6:29 PM MST
Moon 11:08 AM MST (12/18) 11:17 PM MST (12/18)
Length of Visible Light 10h 34m
Length of Day
9h 36m
Waxing Crescent, 35% of the Moon is Illuminated
Dec 18
Waxing Crescent
Dec 19
First Quarter
Dec 28
Full
Jan 4
Last Quarter
Jan 11
New

Hourly Weather History & Observations

Time (MST) Temp. Windchill Dew Point Humidity Pressure Visibility Wind Dir Wind Speed Gust Speed Precip Events Conditions
12:38 AM 24.8 °F 20.5 °F 23.0 °F 93% 29.95 in 10.0 mi East 3.5 mph - N/A   Overcast
12:53 AM 25.0 °F - 23.0 °F 92% 30.05 in 8.0 mi Calm Calm - N/A   Overcast
1:11 AM 24.8 °F - 24.8 °F 100% 29.94 in 9.0 mi Calm Calm - N/A   Overcast
1:28 AM 24.8 °F - 23.0 °F 93% 29.94 in 8.0 mi Calm Calm - N/A   Overcast
1:53 AM 25.0 °F 19.3 °F 23.0 °F 92% 30.06 in 8.0 mi SSW 4.6 mph - N/A   Overcast
2:20 AM 24.8 °F - 23.0 °F 93% 29.94 in 10.0 mi Calm Calm - N/A   Overcast
2:33 AM 24.8 °F - 23.0 °F 93% 29.94 in 10.0 mi Calm Calm - N/A   Overcast
2:40 AM 24.8 °F - 23.0 °F 93% 29.94 in 10.0 mi Calm Calm - N/A   Overcast
2:53 AM 25.0 °F - 23.0 °F 92% 30.05 in 10.0 mi Calm Calm - N/A   Overcast
3:21 AM 24.8 °F - 23.0 °F 93% 29.93 in 10.0 mi Calm Calm - N/A   Overcast
3:53 AM 25.0 °F - 23.0 °F 92% 30.03 in 9.0 mi Calm Calm - N/A   Overcast
4:53 AM 25.0 °F - 23.0 °F 92% 30.03 in 8.0 mi Calm Calm - N/A   Overcast
5:53 AM 25.0 °F - 23.0 °F 92% 30.03 in 10.0 mi Calm Calm - N/A   Overcast
6:53 AM 26.1 °F - 24.1 °F 92% 30.05 in 10.0 mi Calm Calm - N/A   Overcast
7:18 AM 24.8 °F - 23.0 °F 93% 29.94 in 7.0 mi Calm Calm - N/A   Overcast
7:53 AM 25.0 °F - 23.0 °F 92% 30.04 in 6.0 mi Calm Calm - N/A   Overcast
8:02 AM 24.8 °F - 23.0 °F 93% 29.93 in 6.0 mi Calm Calm - N/A   Overcast
8:17 AM 26.6 °F - 24.8 °F 93% 29.94 in 6.0 mi Calm Calm - N/A   Overcast
8:30 AM 26.6 °F - 23.0 °F 86% 29.94 in 5.0 mi Calm Calm - 0.00 in Snow Light Snow
8:53 AM 27.0 °F - 24.1 °F 89% 30.04 in 4.0 mi Calm Calm - 0.00 in   Overcast
9:25 AM 26.6 °F 21.2 °F 24.8 °F 93% 29.93 in 7.0 mi East 4.6 mph - N/A   Overcast
9:53 AM 28.9 °F 23.9 °F 25.0 °F 85% 30.03 in 10.0 mi East 4.6 mph - N/A   Overcast
10:53 AM 30.0 °F 26.5 °F 26.1 °F 85% 30.01 in 10.0 mi ESE 3.5 mph - N/A   Mostly Cloudy
11:13 AM 30.2 °F 24.3 °F 26.6 °F 86% 29.91 in 10.0 mi East 5.8 mph - N/A   Overcast
11:50 AM 30.2 °F 24.3 °F 26.6 °F 86% 29.90 in 10.0 mi East 5.8 mph - N/A   Overcast
11:53 AM 30.9 °F 24.3 °F 26.1 °F 82% 29.98 in 10.0 mi East 6.9 mph - N/A   Overcast
12:53 PM 32.0 °F 25.6 °F 27.0 °F 82% 29.94 in 10.0 mi ENE 6.9 mph - N/A   Overcast
1:53 PM 32.0 °F 25.6 °F 27.0 °F 82% 29.90 in 10.0 mi ENE 6.9 mph - N/A   Overcast
2:53 PM 33.1 °F 27.7 °F 28.0 °F 82% 29.87 in 10.0 mi ENE 5.8 mph - N/A   Overcast
3:53 PM 30.9 °F 24.3 °F 28.0 °F 89% 29.86 in 10.0 mi NE 6.9 mph - N/A   Overcast
4:53 PM 30.9 °F 25.2 °F 27.0 °F 85% 29.84 in 10.0 mi NNE 5.8 mph - N/A   Overcast
5:12 PM 32.0 °F 27.5 °F 26.6 °F 80% 29.75 in 10.0 mi NNE 4.6 mph - N/A   Overcast
5:53 PM 30.9 °F - 28.0 °F 89% 29.83 in 10.0 mi Calm Calm - N/A   Overcast
6:48 PM 30.2 °F - 28.4 °F 93% 29.74 in 9.0 mi Calm Calm - 0.00 in Snow Light Snow
6:53 PM 30.9 °F - 28.0 °F 89% 29.81 in 9.0 mi Calm Calm - 0.00 in Snow Light Snow
7:53 PM 28.9 °F - 27.0 °F 92% 29.80 in 10.0 mi Calm Calm - N/A   Mostly Cloudy
8:44 PM 30.2 °F - 28.4 °F 93% 29.70 in 5.0 mi Calm Calm - 0.00 in Snow Light Snow
8:53 PM 30.0 °F - 27.0 °F 88% 29.77 in 3.0 mi Calm Calm - 0.00 in Snow Light Snow
9:02 PM 28.4 °F - 28.4 °F 100% 29.70 in 2.0 mi Calm Calm - 0.00 in Snow Light Snow
9:16 PM 28.4 °F - 28.4 °F 100% 29.70 in 3.0 mi Calm Calm - 0.00 in Snow Light Snow
9:31 PM 28.4 °F - 28.4 °F 100% 29.70 in 4.0 mi Calm Calm - 0.01 in Snow Light Snow
9:53 PM 28.9 °F - 28.0 °F 96% 29.76 in 6.0 mi Calm Calm - 0.01 in Snow Light Snow
10:21 PM 28.4 °F - 28.4 °F 100% 29.69 in 2.5 mi Calm Calm - 0.00 in Snow Light Snow
10:53 PM 28.9 °F - 28.0 °F 96% 29.74 in 2.0 mi Calm Calm - 0.00 in Snow Light Snow
11:00 PM 28.4 °F 24.6 °F 28.4 °F 100% 29.67 in 2.5 mi East 3.5 mph - 0.00 in Snow Light Snow
11:09 PM 28.4 °F 23.3 °F 28.4 °F 100% 29.67 in 3.0 mi East 4.6 mph - 0.00 in Snow Light Snow
11:53 PM 28.0 °F 22.8 °F 28.0 °F 100% 29.70 in 7.0 mi East 4.6 mph - 0.00 in   Overcast